Flag for Australia Weather past 2 weeks in Geraldton, Western Australia, Australia

Now
77 °F

Mild.


Feels Like: 79 °F
Forecast: 69 / 85 °F
Wind: 14 mph from South

Location: Geraldton Airport

Current Time: Jan 29, 2015 at 6:51:53 PM

Latest Report: Jan 29, 2015 at 6:00 PM


Visibility: N/A

Pressure: 29.75 "Hg

Humidity: 69%

Dew point: 66 °F

Location of GeraldtonLocation

Historic Weather in Geraldton — Graph

°F

Geraldton temperature yesterday

Maximum temperature yesterday: 85 °F (at 12:00 PM)
Minimum temperature yesterday: 68 °F (at 6:00 AM)
Average temperature yesterday: 75 °F

Past Weeks' High & Low Weather Summary

 TemperatureHumidityPressure
High105 °F (Jan 20, 2:00 PM)97% (Jan 18, 3:00 AM)29.95 "Hg (Jan 18, 3:00 AM)
Low59 °F (Jan 17, 6:00 AM)12% (Jan 20, 2:00 PM)29.60 "Hg (Jan 26, 5:00 PM)
Average77 °F61%29.82 "Hg
* Reported Jan 14 5:00 PM — Jan 29 5:00 PM, Geraldton, Weather by CustomWeather, © 2014

Note: Actual official high and low records may vary slightly from our data, if they occured in-between our weather recording intervals... More about our weather records

Advertising

Geraldton weather history for previous 24 hours

 ConditionsComfort  
Time TempWeatherWind HumidityBarometerVisibility
5:00 PM
Jan 29
78 °FWarm.21 mph68%29.74 "HgN/A
3:00 PM79 °FScattered clouds.21 mph65%29.72 "Hg12 mi
2:00 PM80 °FWarm.21 mph64%29.75 "HgN/A
12:00 PM81 °FPartly sunny.18 mph62%29.79 "Hg12 mi
11:00 AM79 °FWarm.17 mph65%29.80 "HgN/A
9:00 AM76 °FOvercast.16 mph74%29.79 "Hg0 mi
8:00 AM74 °FMild.15 mph80%29.79 "HgN/A
6:00 AM72 °FOvercast.15 mph86%29.76 "Hg9 mi
5:00 AM72 °FMild.13 mph84%29.76 "HgN/A
3:00 AM72 °FOvercast.12 mph84%29.73 "HgN/A
2:00 AM72 °FMild.12 mph83%29.73 "HgN/A
12:00 AM72 °FOvercast.12 mph82%29.78 "HgN/A
11:00 PM
Jan 28
72 °FMild.10 mph81%29.78 "HgN/A
9:00 PM73 °FOvercast.12 mph80%29.77 "HgN/A
8:00 PM74 °FMild.14 mph78%29.75 "HgN/A
6:00 PM76 °FOvercast.14 mph76%29.71 "HgN/A
Weather by CustomWeather, © 2014

See weather overviewHow to use our weather pages